Regional Weather Roundup
Issued by NWS

Home | Current Version | Previous Version | Text Only | Print | Product List | Glossary On
Versions: 1 2 3 4 5 6 7 8 9 10 11 12 13 14 15 16 17 18 19 20 21 22 23 24 25 26 27 28 29 30 31 32 33 34 35 36 37 38 39 40 41 42 43 44 45 46 47 48 49 50
000
ASUS43 KTOP 172008
RWRKS

WEATHER ROUNDUP FOR KANSAS
NATIONAL WEATHER SERVICE GOODLAND KS
200 PM CST FRI NOV 17 2017

NOTE:  "FAIR" INDICATES FEW OR NO CLOUDS BELOW 12,000 FEET WITH NO
SIGNIFICANT WEATHER AND/OR OBSTRUCTIONS TO VISIBILITY.

KSZ001>006-013>018-027>032-041>047-172100-
NORTHWEST KANSAS

CITY           SKY/WX    TMP DP  RH WIND       PRES   REMARKS
GOODLAND       SUNNY     69  33  26 N18G26    29.54F
HAYS           CLOUDY    79  43  27 VRB3      29.46F
HILL CITY      CLOUDY    73  38  27 N9        29.50F
RUSSELL        CLOUDY    75  43  31 W8        29.47F
$$

KSZ061>065-074>080-084>089-172100-
SOUTHWEST KANSAS

CITY           SKY/WX    TMP DP  RH WIND       PRES   REMARKS
DODGE CITY     CLOUDY    76  37  24 SW13      29.56F
ELKHART        CLOUDY    82  41  23 W24G32    29.63F
GARDEN CITY    CLOUDY    76  34  21 SW20      29.55F
GREAT BEND     CLOUDY    80  38  22 W22G29    29.48F
PRATT          CLOUDY    75  40  28 S16       29.54F
$$

KSZ066>073-081>083-090>101-172100-
SOUTHEAST KANSAS

CITY           SKY/WX    TMP DP  RH WIND       PRES   REMARKS
CHANUTE        PTSUNNY   74  60  61 S22G32    29.57F
COFFEYVILLE    SUNNY     77  61  57 S29G40    29.55F
HUTCHINSON     CLOUDY    75  49  39 SW18      29.51F
MEDICINE LODGE   N/A     75  41  29 S12       29.54F
NEWTON         CLOUDY    72  52  49 SW21      29.53F
PARSONS        MOSUNNY   75  61  61 S18G31    29.57F
WICHITA INTL   PTSUNNY   73  52  47 SW15      29.55F
WICHITA JABRA  MOSUNNY   72  53  51 SW18      29.54F
WICHITA MCCONL MOSUNNY   73  51  45 SW21      29.54F
WINFIELD       MOSUNNY   75  55  49 SW22G29   29.57F
$$

KSZ007>012-019>026-033>040-048>060-102>105-172100-
NORTHEAST KANSAS

CITY           SKY/WX    TMP DP  RH WIND       PRES   REMARKS
CONCORDIA      SUNNY     69  48  47 SW9       29.48F
EMPORIA        CLOUDY    75  56  51 S22G29    29.52F
LAWRENCE       MOSUNNY   71  59  65 S13G20    29.52F
MANHATTAN      CLOUDY    75  55  49 SW18      29.47F
MARYSVILLE     SUNNY     72  55  56 SW6       29.47F
OLATHE IND     PTSUNNY   68  59  73 S22       29.54F
OLATHE EXE     CLOUDY    66  58  75 S13G30    29.54F
SALINA         CLOUDY    77  50  38 SW18      29.48F
TOPEKA BILLARD MOSUNNY   71  59  65 S15G21    29.51F
TOPEKA FORBES  SUNNY     72  59  63 S18G26    29.51F
$$



USA.gov is the U.S. government's official web portal to all federal, state and local government web resources and services.